Kuching, Malaysia

7:42 AM +08 on August 18, 2017 (GMT +0800)
Kuching International

Weather History for WBGG - January, 2013

Change the Weather History Date:

Wednesday, January 2, 2013

  Actual Average Record
Temperature  
Mean Temperature 82 °F -  
Max Temperature 91 °F 85 °F - ()
Min Temperature 73 °F 73 °F - ()
Cooling Degree Days 17    
Growing Degree Days 32 (Base 50)    
Moisture  
Dew Point 75 °F    
Average Humidity 83    
Maximum Humidity 100    
Minimum Humidity 54    
Precipitation  
Precipitation 0.16 in 0.89 in - ()
Sea Level Pressure  
Sea Level Pressure 29.79 in    
Wind  
Wind Speed 2 mph ()    
Max Wind Speed 9 mph    
Max Gust Speed -    
Visibility 6.9 miles    
Events Rain , Thunderstorm    
T = Trace of Precipitation, MM = Missing Value Source: Averaged Metar Reports

Daily Weather History Graph

Daily Weather History Graph

Search for Another Location

Airport or City:

Trip Planner

Search our weather history database for the weather conditions in past years. The results will help you decide how hot, cold, wet, or windy it might be!

Date:

Astronomy

Jan. 02, 2013 Rise Set
Actual Time 6:41 AM +08 6:43 PM +08
Civil Twilight 6:19 AM +08 7:06 PM +08
Nautical Twilight 5:52 AM +08 7:32 PM +08
Astronomical Twilight 5:26 AM +08 7:58 PM +08
Moon 10:32 PM +08 (1/2) 10:09 AM +08 (1/2)
Length of Visible Light 12h 47m
Length of Day
12h 02m
Waning Gibbous, 80% of the Moon is Illuminated
Jan 2
Waning Gibbous
Jan 5
Last Quarter
Jan 12
New
Jan 19
First Quarter
Jan 27
Full

Hourly Weather History & Observations

Time (+08) Temp. Heat Index Dew Point Humidity Pressure Visibility Wind Dir Wind Speed Gust Speed Precip Events Conditions
12:00 AM 75.2 °F - 75.2 °F 100% 29.83 in 6.2 mi ESE 2.3 mph - N/A   Mostly Cloudy
12:30 AM 75.2 °F - 75.2 °F 100% 29.83 in 6.2 mi SE 2.3 mph - N/A   Mostly Cloudy
1:00 AM 75.2 °F - 75.2 °F 100% 29.83 in 6.2 mi SSE 2.3 mph - N/A Thunderstorm Thunderstorm
1:30 AM 75.2 °F - 73.4 °F 94% 29.80 in 6.2 mi South 2.3 mph - N/A Thunderstorm Thunderstorm
2:00 AM 75 °F - 74 °F 95% 29.81 in 9 mi South 2.3 mph - - Thunderstorm Thunderstorm
2:00 AM 75.2 °F - 73.4 °F 94% 29.80 in 6.2 mi South 2.3 mph - N/A Thunderstorm Thunderstorm
2:30 AM 75.2 °F - 73.4 °F 94% 29.80 in 6.2 mi SE 2.3 mph - N/A Thunderstorm Thunderstorm
3:00 AM 75.2 °F - 73.4 °F 94% 29.80 in 6.2 mi SSE 1.2 mph - N/A   Mostly Cloudy
3:30 AM 75.2 °F - 73.4 °F 94% 29.77 in 6.2 mi Calm Calm - N/A   Mostly Cloudy
4:00 AM 75.2 °F - 73.4 °F 94% 29.77 in 6.2 mi SW 1.2 mph - N/A   Mostly Cloudy
4:30 AM 75.2 °F - 73.4 °F 94% 29.77 in 6.2 mi Calm Calm - N/A   Mostly Cloudy
5:00 AM 75 °F - 73 °F 92% 29.78 in 9 mi SW 1.2 mph - -   Partly Cloudy
5:00 AM 75.2 °F - 73.4 °F 94% 29.77 in 6.2 mi SW 1.2 mph - N/A   Mostly Cloudy
5:30 AM 75.2 °F - 73.4 °F 94% 29.77 in 6.2 mi East 1.2 mph - N/A   Mostly Cloudy
6:00 AM 75.2 °F - 73.4 °F 94% 29.77 in 6.2 mi SSE 1.2 mph - N/A   Mostly Cloudy
6:30 AM 73.4 °F - 73.4 °F 100% 29.77 in 6.2 mi SSW 1.2 mph - N/A   Mostly Cloudy
7:00 AM 73.4 °F - 73.4 °F 100% 29.80 in 6.2 mi South 1.2 mph - N/A   Mostly Cloudy
7:30 AM 75.2 °F - 73.4 °F 94% 29.80 in 6.2 mi Calm Calm - N/A   Mostly Cloudy
8:00 AM 76 °F - 74 °F 92% 29.83 in 16 mi Calm Calm - -   Scattered Clouds
8:00 AM 75.2 °F - 73.4 °F 94% 29.83 in 6.2 mi Calm Calm - N/A   Mostly Cloudy
8:30 AM 77.0 °F - 75.2 °F 94% 29.83 in 6.2 mi SW 2.3 mph - N/A   Mostly Cloudy
9:00 AM 78.8 °F - 75.2 °F 89% 29.80 in 6.2 mi South 3.5 mph - N/A   Mostly Cloudy
9:30 AM 80.6 °F 86.2 °F 75.2 °F 84% 29.83 in 6.2 mi SE 2.3 mph - N/A   Mostly Cloudy
10:00 AM 84.2 °F 94.1 °F 77.0 °F 79% 29.83 in 6.2 mi SE 3.5 mph - N/A   Mostly Cloudy
10:30 AM 84.2 °F 92.3 °F 75.2 °F 74% 29.83 in 6.2 mi SSE 2.3 mph - N/A   Mostly Cloudy
11:00 AM 86 °F - 75 °F 64% 29.83 in 16 mi SE 3.5 mph - -   Partly Cloudy
11:00 AM 86.0 °F 95.1 °F 75.2 °F 70% 29.83 in 6.2 mi SE 3.5 mph - N/A   Mostly Cloudy
11:30 AM 87.8 °F 97.6 °F 75.2 °F 66% 29.80 in 6.2 mi ESE 4.6 mph - N/A   Mostly Cloudy
12:00 PM 87.8 °F 97.6 °F 75.2 °F 66% 29.80 in 6.2 mi SSW 3.5 mph - N/A   Mostly Cloudy
12:30 PM 89.6 °F 99.8 °F 75.2 °F 62% 29.80 in 6.2 mi ESE 3.5 mph - N/A   Mostly Cloudy
1:00 PM 89.6 °F 99.8 °F 75.2 °F 62% 29.80 in 6.2 mi ESE 4.6 mph - N/A   Mostly Cloudy
1:30 PM 89.6 °F 99.8 °F 75.2 °F 62% 29.80 in 6.2 mi ESE 3.5 mph - N/A   Mostly Cloudy
2:00 PM 90 °F - 76 °F 54% 29.77 in 16 mi ESE 3.5 mph - -   Partly Cloudy
2:00 PM 91.4 °F 102.5 °F 75.2 °F 59% 29.77 in 6.2 mi ESE 3.5 mph - N/A   Mostly Cloudy
2:30 PM 89.6 °F 99.8 °F 75.2 °F 62% 29.74 in 6.2 mi East 4.6 mph - N/A   Mostly Cloudy
3:00 PM 91.4 °F 105.1 °F 77.0 °F 63% 29.74 in 6.2 mi SE 3.5 mph - N/A   Mostly Cloudy
3:30 PM 87.8 °F 102.5 °F 78.8 °F 75% 29.71 in 6.2 mi North 4.6 mph - N/A   Mostly Cloudy
4:00 PM 89.6 °F 104.7 °F 78.8 °F 70% 29.71 in 6.2 mi North 6.9 mph - N/A   Mostly Cloudy
4:30 PM 87.8 °F 102.5 °F 78.8 °F 75% 29.71 in 6.2 mi ENE 6.9 mph - N/A   Mostly Cloudy
5:00 PM 87 °F - 78 °F 68% 29.73 in 9 mi NNE 5.8 mph - -   Partly Cloudy
5:00 PM 86.0 °F 96.9 °F 77.0 °F 74% 29.71 in 6.2 mi NNE 5.8 mph - N/A   Mostly Cloudy
5:30 PM 86.0 °F 99.3 °F 78.8 °F 79% 29.74 in 6.2 mi NNW 3.5 mph - N/A   Mostly Cloudy
6:00 PM 84.2 °F 94.1 °F 77.0 °F 79% 29.74 in 6.2 mi West 3.5 mph - N/A   Mostly Cloudy
6:30 PM 84.2 °F 94.1 °F 77.0 °F 79% 29.74 in 6.2 mi WNW 4.6 mph - N/A   Mostly Cloudy
7:00 PM 82.4 °F 90.9 °F 77.0 °F 84% 29.77 in 6.2 mi WSW 9.2 mph - N/A   Mostly Cloudy
8:00 PM 78 °F - 76 °F 92% 29.83 in 2 mi West 9.2 mph - - Rain Rain
11:00 PM 77 °F - 75 °F 92% 29.86 in 9 mi West 3.5 mph - -   Partly Cloudy
11:00 PM 77.0 °F - 75.2 °F 94% 29.83 in 6.2 mi West 3.5 mph - N/A   Mostly Cloudy
11:30 PM 77.0 °F - 75.2 °F 94% 29.83 in 6.2 mi SW 3.5 mph - N/A   Mostly Cloudy